Lid_Strength_Index
4 4 4 4 3 3 3 3 3 3 4 5 4 4 4 4 4 7 9 6 4 1 0 5 4 3 3 4 4 4 11 13 11 10 9 6 7 5 4 5 5 4 5 4 2
4 4 3 3 4 3 3 3 3 3 3 4 5 4 4 4 7 8 4 -0 -1 -2 6 7 6 3 5 5 5 7 10 11 9 8 8 6 6 6 6 5 5 4 3 3 3
4 4 4 3 3 3 3 3 3 3 3 3 3 5 4 5 9 9 1 -0 -0 -2 5 5 6 6 7 6 6 7 9 8 8 7 6 7 6 5 6 7 6 5 5 4 4
3 3 3 3 3 3 3 3 3 3 3 3 3 3 3 7 14 7 1 -0 -2 1 5 7 8 9 9 8 6 8 6 7 7 6 6 7 5 6 5 6 4 4 3 4 4
3 3 3 3 3 3 3 3 3 3 3 3 3 3 5 9 10 5 -1 1 5 6 7 8 10 10 11 8 7 8 7 6 5 5 5 5 6 6 6 4 4 4 4 4 4
4 4 4 4 3 3 3 3 3 3 3 3 3 3 7 13 6 5 5 4 4 7 7 8 10 9 10 10 9 7 6 7 6 6 6 6 6 6 5 4 4 4 4 5 4
4 4 4 4 4 4 4 4 3 3 3 3 2 4 8 10 6 6 7 7 6 5 7 6 7 8 9 10 8 8 9 8 8 6 7 5 8 7 5 4 5 5 4 4 4
4 4 4 4 4 3 3 3 4 4 4 3 2 5 10 6 5 6 6 7 6 6 6 6 6 8 10 9 8 9 9 12 9 7 6 6 10 7 5 5 5 5 4 4 4
4 3 3 3 3 3 3 3 3 3 3 3 6 8 11 3 6 5 6 7 7 6 6 6 7 9 9 12 12 11 14 13 11 7 7 7 9 6 5 5 6 5 5 4 5
3 3 3 3 3 3 3 3 3 2 3 3 4 9 7 8 6 5 5 6 7 7 8 9 10 11 12 12 15 14 13 12 11 8 7 8 8 6 6 6 6 5 5 5 5
3 3 4 3 3 3 4 6 7 8 6 9 8 8 7 5 5 7 6 7 8 8 12 11 13 14 13 11 10 10 10 11 9 7 8 9 8 8 6 7 7 6 6 6 6
4 3 3 2 2 2 4 6 5 7 12 8 8 8 7 6 10 9 7 10 11 13 10 11 14 11 9 10 10 11 12 12 9 7 8 9 9 7 6 6 6 6 6 6 6
3 3 2 1 2 3 4 3 1 2 9 7 6 8 7 7 10 9 8 10 12 13 13 13 12 9 10 10 11 11 12 12 12 9 8 9 11 9 7 6 6 6 6 6 6
3 2 2 1 3 3 3 0 0 1 12 10 7 6 5 6 9 6 5 8 11 13 12 14 11 10 11 11 10 13 9 9 10 11 14 9 14 10 8 7 6 6 7 6 6
2 2 1 2 4 4 2 1 2 4 19 8 7 2 4 6 6 5 4 6 10 10 11 15 13 12 12 11 9 11 8 9 9 11 12 11 14 11 9 9 8 7 6 6 5
2 2 2 2 3 2 1 1 3 12 19 10 6 8 8 7 6 5 5 4 5 9 10 12 10 11 12 10 9 9 10 10 10 11 15 13 12 13 11 9 8 7 6 6 6
2 2 3 2 4 2 1 4 13 17 8 10 9 8 8 8 8 7 8 9 11 13 13 11 10 10 10 12 11 11 12 16 16 16 17 12 12 12 9 8 7 7 6 6 6
2 2 2 2 1 2 3 9 17 10 10 7 8 8 10 8 9 8 9 10 8 9 12 13 15 9 8 11 13 13 12 16 19 18 16 11 14 12 8 6 7 7 7 6 6
3 3 3 2 1 2 7 15 14 10 8 9 8 11 11 9 10 10 10 10 9 9 13 15 14 8 9 9 10 13 14 11 14 12 15 14 11 9 8 8 8 8 7 7 6
5 5 3 1 1 4 9 12 11 7 7 7 12 10 13 12 11 11 11 9 9 8 8 10 15 10 10 8 8 9 10 14 13 17 18 14 13 13 11 9 9 8 7 7 6
5 6 3 2 1 6 13 11 8 6 6 8 10 10 11 12 11 11 12 9 7 8 8 10 12 12 9 11 11 11 13 13 13 13 16 17 15 10 9 8 9 8 7 7 6
5 9 3 2 9 8 11 8 6 7 6 7 8 9 10 10 11 12 12 9 7 8 10 9 13 16 12 9 8 9 11 12 15 15 13 14 14 9 9 9 8 8 7 6 6
7 6 2 3 12 12 9 8 7 7 8 8 8 7 9 11 13 10 10 8 7 9 10 10 13 18 15 11 9 12 11 10 11 11 13 14 14 8 8 8 7 8 6 6 6
6 10 6 6 6 9 10 10 10 6 7 7 7 7 10 11 9 11 10 8 7 8 6 8 13 14 18 15 12 14 12 11 13 14 13 12 12 9 8 8 7 8 6 6 6
5 8 7 11 10 8 8 9 10 10 7 7 9 8 10 12 11 11 10 9 7 7 8 9 15 12 12 11 11 12 13 12 13 13 14 11 11 10 9 8 9 7 6 6 6
7 8 7 9 8 8 9 10 10 9 9 10 10 9 9 11 11 12 10 10 11 9 10 9 14 13 14 12 11 13 12 12 12 12 12 10 11 8 8 7 7 7 6 6 6
5 4 6 9 9 10 10 10 10 8 7 7 8 9 10 9 7 7 7 7 8 10 10 11 13 15 17 12 13 16 13 12 11 10 10 12 10 8 8 8 8 7 6 6 6